sat.trackr.live / text

‹ back to catalog

CS2

NORAD 49262 · 2021-088C

PAYLOAD ACTIVE UNKNOWN

§ Identity

Operator
Country
US
Launch date
2021-09-27
Launch site
AFWTR
Launch vehicle
Mass (kg)
RCS (m²)

External: N2YO · Heavens-Above · Gunter

§ Orbital elements

Epoch: 2026-09-13T03:27:25.206336Z

Period
93.58 min
Inclination
97.3728°
Eccentricity
0.0010389
Mean motion
15.38760863 rev/d
Perigee alt
442.7 km
Apogee alt
456.9 km
Semi-major
6,827.9 km
B*
3.1841e-4
RAAN
322.2630°
Arg perigee
123.2037°
Mean anomaly
237.0206°
Rev number
27,403

§ Raw data

CS21 49262U 21088C   26256.14404174  .00012143  00000+0  31841-3 0  99982 49262  97.3728 322.2630 0010389 123.2037 237.0206 15.38760863274031

JSON: /api/v1/satellites/49262 · /tle

For live sub-satellite position, see the globe view (requires WebGL).

§ Visibility from observer

Set your observer location to see the next 7 days of passes ≥ 10°. The values pass through the URL so the page stays shareable.

No JS? Fill the form by hand. The geolocation button needs JavaScript.